STARLINK-31963, 59893

Orbit data source: Space-Track

STARLINK-31963, 59893 is a payload satellite owned by SpaceX/Seattle (US) in LEO that was launched on Tue, 28 May 2024 UTC via an FALCON 9 launch vehicle from the Air Force Eastern Test Range (AFETR). Payload-class satellites include a variety of spacecraft equipped with specific instruments for various scientific and technological missions. These include communications satellites like Starlink; space stations such as the ISS; scientific satellites like the Hubble; Earth observation satellites from companies like Planet Labs, Umbra, and HawkEye 360; GPS; miniature CubeSats for education and research; and military/defense satellites.

Loading next visibility...
Identifier
59893, 2024-100J
Orbit
LEO
Country
Flag of USUS
Related business
Manufacturer
SpaceX/Seattle
Mission
Operational Commercial Communications
Bus & Motor
STARLINK V2M, Unknown motor
Mass
730 kg wet, ~700 kg dry
Launch date (UTC)
2024-05-28 (2 years ago)
Launch vehicle
FALCON 9
Launch site
Air Force Eastern Test Range (AFETR)
Object type
Payload
Rocket body
Debris
Shape & HBR
Box + 2 Pan, 17.7 m
Radar Cross Section
33.884 m², Large (>1 m²)

Expand to show TLE details & history
Last TLE update: 2 days ago

TLE from 2 days ago
0 STARLINK-31963
1 59893U 24100J   26171.33535735  .00000151  00000-0  15019-4 0  9999
2 59893  43.0015 265.8462 0001276 264.0163  96.0544 15.27574478116859
Epoch: 2026-06-20T08:02Z
TLE epoch observation values (Epoch: 2026-06-20T08:02:54.875Z)
Latitude
0.00005°
Longitude
-123.43385°
Altitude
482.934 km
Speed
7.626 km/s
True Right ascension
17h 43m 23s
True Declination
0° 00' 00"
Sunlit
Object was in full shadow at epoch
Visualization orbit readout
Latitude
Unknown
Longitude
Unknown
Altitude
Unknown
Speed
Unknown
Apparent Right ascension
Unknown
Apparent Declination
Unknown
Sunlit
N/A
Visualization observer readout
Local Sidereal Time
21:37:53
Azimuth
Unknown
Elevation
Unknown
Doppler factor
Unknown
Orbital elements
Apogee altitude
485.886 km
Perigee altitude
484.135 km
Semi-major axis
6,863.148 km
Eccentricity
0.00013
Inclination
43.0015°
RAAN
265.8462°
Arg. of periapsis
264.0163°
True anomaly
96.06894°
Mean anomaly
96.0544°
Eccentric anomaly
96.06167°
Mean motion
3.81732 °/min
Orbital period
94.31 mins
BSTAR
0.000015019
Loading maneuver chart data...
Computing Atmospheric mass density...
Loading historical data...
Loading historical data...
Loading historical data...
Loading historical data...
Loading historical data...
Loading historical data...
Loading historical data...

Documentation

Showing up to 5 results
|